Miscellaneous Local Product
Issued by NWS Hastings, NE

Home | Current Version | Previous Version | Graphics & Text | Print | Product List | Glossary On
Versions: 1 2 3 4 5 6 7 8 9 10 11 12 13 14 15 16 17 18 19 20 21 22 23 24 25 26 27 28 29 30 31 32 33 34 35 36 37 38 39 40 41 42 43 44 45 46 47 48 49 50
000
AXUS43 KGID 312202
MISGRI

GID CWA HOURLY WEATHER ROUNDUP
NATIONAL WEATHER SERVICE HASTINGS NE
500 PM CDT WED AUG 31 2016

NOTE: "FAIR" INDICATES FEW OR NO CLOUDS BELOW 12,000 FEET WITH NO
SIGNIFICANT WEATHER AND/OR OBSTRUCTIONS TO VISIBILITY.

...SOUTH CENTRAL NEBRASKA...

CITY           SKY/WX    TMP DP  RH WIND       PRES   REMARKS
GRAND ISLAND   SUNNY     82  52  35 NE12      30.18S
HASTINGS       SUNNY     81  61  50 E10       30.18F
KEARNEY        MOSUNNY  N/A N/A N/A SE8       30.16F
ORD            SUNNY     83  56  39 E6        30.17F
YORK           SUNNY     79  55  44 NE13      30.17S
AURORA         SUNNY     80  58  47 NE7       30.17F
LEXINGTON      MOSUNNY   80  61  51 SE9       30.18F
HOLDREGE       SUNNY     78  58  49 SE10      30.18F
HEBRON         CLOUDY    79  60  51 E6        30.15S

...NEBRASKA PANHANDLE...

CITY           SKY/WX    TMP DP  RH WIND       PRES   REMARKS
CHADRON        SUNNY     84  51  31 S13       30.16F
ALLIANCE       PTSUNNY   81  57  43 SE16G24   30.20F
SCOTTSBLUFF    SUNNY     81  58  45 E17       30.19F
SIDNEY         SUNNY     77  59  53 SE13      30.23F

...WESTERN AND NORTH CENTRAL NEBRASKA...

CITY           SKY/WX    TMP DP  RH WIND       PRES   REMARKS
VALENTINE      MOSUNNY   83  57  41 SE8       30.19F
AINSWORTH      SUNNY     82  61  49 SE8       30.21S
ONEILL         MOSUNNY   84  50  31 SE12      30.19F
BROKEN BOW     MOSUNNY   80  61  52 SE10      30.19F
IMPERIAL       CLOUDY    73  64  73 E7        30.21F
NORTH PLATTE   SUNNY     81  59  47 SE13      30.19F
MCCOOK         CLOUDY    76  64  66 E10       30.18F

...EASTERN NEBRASKA...

CITY           SKY/WX    TMP DP  RH WIND       PRES   REMARKS
NORFOLK        SUNNY     80  55  42 E10       30.17F
SO SIOUX CITY  SUNNY     82  59  45 VRB6      30.16F
TEKAMAH        SUNNY     80  58  46 NE8       30.15F
COLUMBUS       SUNNY     79  57  47 E7        30.17F
ALBION         SUNNY     80  57  45 E8        30.18F
OMAHA EPPLEY   PTSUNNY   81  59  47 N9        30.14F
OFFUTT AFB     SUNNY     79  60  51 N7        30.13F
MILLARD        SUNNY    N/A N/A N/A NE3       30.14S
LINCOLN        MOSUNNY   82  61  48 NE10      30.15F
NEBRASKA CITY  PTSUNNY   78  56  47 NE8       30.14S
BEATRICE       CLOUDY    77  58  50 E7        30.14S
FALLS CITY     CLOUDY    78  62  57 NE6       30.11S

...NORTHERN KANSAS...

CITY           SKY/WX    TMP DP  RH WIND       PRES   REMARKS
GOODLAND       CLOUDY    69  64  84 E10       30.21S
HILL CITY      CLOUDY    78  67  68 E10       30.16F
NORTON         PTCLDY    73  61  64 E12       30.17F
SMITH CENTER   CLOUDY    79  64  61 CALM      30.15F
BELOIT         MOSUNNY   73  64  73 NE8       30.13F
HAYS           MOSUNNY   77  63  61 E16       30.14F
RUSSELL        CLOUDY    75  67  76 NE15      30.13F
CONCORDIA      CLOUDY    78  68  71 NE9       30.14S
SALINA         LGT RAIN  72  68  87 N9        30.12F
TOPEKA         MOSUNNY   82  70  66 NE6       30.08F



USA.gov is the U.S. government's official web portal to all federal, state and local government web resources and services.